Showing default

HULIANWANG DIGUI-157, 68131

Orbit data source: Space-Track

HULIANWANG DIGUI-157, 68131 is a payload satellite owned by Zhongguo Xingwang (CN) in LEO that was launched on Thu, 12 Mar 2026 UTC via a CHANG ZHENG 8A launch vehicle from the Wenchang Satellite Launch Center (WSC). Payload-class satellites include a variety of spacecraft equipped with specific instruments for various scientific and technological missions. These include communications satellites like Starlink; space stations such as the ISS; scientific satellites like the Hubble; Earth observation satellites from companies like Planet Labs, Umbra, and HawkEye 360; GPS; miniature CubeSats for education and research; and military/defense satellites.

Loading next visibility...
Identifier
68131, 2026-047C
Orbit
LEO
Country
Flag of CNCN / PRC
Related business
Manufacturer
CAST?
Mission
Operational spacecraft
Bus & Motor
XINGWANG C, Unknown motor
Mass
~700 kg wet, ~700 kg dry
Launch date (UTC)
2026-03-12 (1 month ago)
Launch vehicle
CHANG ZHENG 8A
Launch site
Wenchang Satellite Launch Center (WSC)
Object type
Payload
Rocket body
Debris
Shape & HBR
Unknown
Radar Cross Section
RCS unknown

Expand to show TLE details & history
Last TLE update: 20 hours ago

TLE from 20 hours ago
0 HULIANWANG DIGUI-157
1 68131U 26047C   26104.70547823 -.00000119  00000-0  21502-4 0  9993
2 68131  50.0032 286.6308 0001979 341.5533  18.5283 13.66427262  4587
Epoch: 2026-04-14T16:55Z
TLE epoch observation values (Epoch: 2026-04-14T16:55:53.319Z)
Latitude
-0.00002°
Longitude
-170.21927°
Altitude
1,011.554 km
Speed
7.348 km/s
True Right ascension
19h 06m 31s
True Declination
0° 00' 00"
Sunlit
Object was in daylight at epoch
Visualization orbit readout
Latitude
Unknown
Longitude
Unknown
Altitude
Unknown
Speed
Unknown
Apparent Right ascension
Unknown
Apparent Declination
Unknown
Sunlit
N/A
Visualization observer readout
Local Sidereal Time
19:50:24
Azimuth
Unknown
Elevation
Unknown
Doppler factor
Unknown
Orbital elements
Apogee altitude
1,014.606 km
Perigee altitude
1,011.681 km
Semi-major axis
7,391.28 km
Eccentricity
0.0002
Inclination
50.0032°
RAAN
286.6308°
Arg. of periapsis
341.5533°
True anomaly
18.53551°
Mean anomaly
18.5283°
Eccentric anomaly
18.5319°
Mean motion
3.41557 °/min
Orbital period
105.4 mins
BSTAR
0.000021502
Loading maneuver chart data...
Computing Atmospheric mass density...
Loading historical data...
Loading historical data...
Loading historical data...
Loading historical data...
Loading historical data...
Loading historical data...
Loading historical data...

Documentation

Showing up to 5 results
|